CST,Max TemperatureF,Mean TemperatureF,Min TemperatureF,Max Dew PointF,MeanDew PointF,Min DewpointF,Max Humidity, Mean Humidity, Min Humidity, Max Sea Level PressureIn, Mean Sea Level PressureIn, Min Sea Level PressureIn, Max VisibilityMiles, Mean VisibilityMiles, Min VisibilityMiles, Max Wind SpeedMPH, Mean Wind SpeedMPH, Max Gust SpeedMPH,PrecipitationIn, CloudCover, Events, WindDirDegrees
2013-12-1,44,34,24,33,29,24,96,83,61,30.11,30.06,29.99,10,6,3,8,2,,0.00,2,,24
2013-12-2,41,36,31,35,30,27,94,78,56,29.98,29.85,29.75,10,6,2,12,5,18,0.02,7,Rain,116
2013-12-3,50,43,36,48,42,34,96,93,91,29.74,29.71,29.67,2,2,1,10,6,16,0.02,8,Rain,153
2013-12-4,55,47,37,53,47,33,97,92,80,29.74,29.65,29.53,10,4,1,17,7,28,0.00,7,Rain,170
2013-12-5,36,28,20,32,18,10,87,71,63,30.28,30.06,29.74,10,10,7,17,12,25,0.00,3,,279
2013-12-6,20,16,12,11,8,4,74,68,59,30.55,30.38,30.25,10,10,10,9,6,,0.00,4,,317
2013-12-7,19,13,7,8,3,1,86,67,48,30.70,30.63,30.55,10,10,10,8,4,,0.00,0,,324
2013-12-8,24,18,11,23,15,7,95,79,57,30.60,30.24,29.96,10,6,0,14,5,18,0.03,7,Snow,67
2013-12-9,24,12,0,22,9,-6,90,75,60,30.26,30.14,29.96,10,8,2,15,10,21,0.03,4,Snow,265
2013-12-10,22,8,-5,11,3,-9,86,67,57,30.31,30.17,30.05,10,10,10,21,7,30,0.00,3,,248
2013-12-11,20,8,-4,14,6,-11,90,75,60,30.60,30.43,30.29,10,7,0,13,4,21,0.00,4,Snow,296
2013-12-12,20,6,-7,10,1,-12,91,72,55,30.56,30.38,30.22,10,10,7,13,3,21,0.00,1,,227
2013-12-13,29,17,5,25,15,3,93,80,61,30.22,30.15,30.09,10,8,0,10,2,,0.00,3,Snow,87
2013-12-14,30,24,17,28,25,14,94,88,78,30.09,29.98,29.89,10,5,0,13,8,18,0.00,7,Snow,21
2013-12-15,17,14,10,14,6,4,90,75,67,30.13,30.06,29.97,10,10,3,15,8,25,0.00,6,Snow,272
2013-12-16,19,14,9,17,11,4,96,81,69,30.15,30.09,30.03,10,7,1,10,3,,0.00,7,Snow,133
2013-12-17,32,24,16,25,19,14,95,81,66,30.12,30.05,29.97,10,6,1,13,8,21,0.00,6,Snow,264
2013-12-18,33,22,10,28,16,8,90,71,45,30.17,30.03,29.85,10,10,10,15,6,23,0.03,0,,210
2013-12-19,41,34,28,35,32,27,98,88,77,29.93,29.87,29.79,10,8,1,7,4,,0.00,2,Rain,125
2013-12-20,35,33,31,35,33,31,99,96,94,29.81,29.77,29.73,5,2,0,13,4,17,0.10,8,Fog-Rain-Snow,10
2013-12-21,34,32,29,33,30,27,99,94,92,29.86,29.77,29.56,10,4,1,17,5,22,0.09,8,Rain,8
2013-12-22,33,30,26,32,28,22,99,90,81,30.14,29.84,29.59,10,8,1,13,7,18,0.03,8,Rain-Snow,320
2013-12-23,25,12,0,22,5,-7,86,77,70,30.49,30.37,30.15,10,9,4,15,10,23,0.00,4,Snow,268
2013-12-24,18,8,-2,12,0,-8,79,73,63,30.59,30.49,30.36,10,10,5,12,7,17,0.00,2,Snow,231
2013-12-25,27,22,18,25,19,11,94,82,67,30.35,30.21,30.13,10,7,1,14,9,22,0.00,8,Snow,223
2013-12-26,34,21,8,28,19,6,89,76,67,30.31,30.22,30.13,10,10,5,13,7,22,0.00,6,,225
2013-12-27,43,32,20,31,28,19,96,77,57,30.31,30.22,30.12,10,9,0,14,6,18,0.00,2,Fog,221
2013-12-28,51,40,28,33,31,26,92,71,47,30.12,30.02,29.86,10,10,10,13,6,21,0.00,0,,205
2013-12-29,37,26,14,31,23,7,94,82,72,30.20,29.95,29.79,10,8,1,13,7,17,0.00,5,Snow,297
2013-12-30,13,7,1,7,1,-6,85,74,67,30.35,30.26,30.19,10,8,1,9,5,,0.00,4,Snow,301
2013-12-31,14,7,0,10,4,-4,87,82,74,30.38,30.29,30.19,10,8,1,12,3,,0.00,5,Snow,299